Lincoln, NM

10:30 PM MDT on August 24, 2016 (GMT -0600)
Sierra Blanca Regional

Weather History for KSRR - September, 2013

Change the Weather History Date:

Monday, September 9, 2013

  Actual Average Record
Temperature  
Mean Temperature 64 °F -  
Max Temperature 75 °F 75 °F 82 °F (2000)
Min Temperature 53 °F 52 °F 48 °F (2001)
Degree Days  
Heating Degree Days 1    
Growing Degree Days 14 (Base 50)    
Moisture  
Dew Point 49 °F    
Average Humidity 58    
Maximum Humidity 77    
Minimum Humidity 36    
Precipitation  
Precipitation 0.00 in - - ()
Sea Level Pressure  
Sea Level Pressure 30.18 in    
Wind  
Wind Speed 6 mph (SE)    
Max Wind Speed 18 mph    
Max Gust Speed 26 mph    
Visibility 10 miles    
Events      
Averages and records for this station are not official NWS values.
T = Trace of Precipitation, MM = Missing Value Source: NWS Daily Summary

Daily Weather History Graph

Daily Weather History Graph

Search for Another Location

Airport or City:

Trip Planner

Search our weather history database for the weather conditions in past years. The results will help you decide how hot, cold, wet, or windy it might be!

Date:

Astronomy

Sep. 09, 2013 Rise Set
Actual Time 6:41 AM MDT 7:16 PM MDT
Civil Twilight 6:16 AM MDT 7:41 PM MDT
Nautical Twilight 5:47 AM MDT 8:10 PM MDT
Astronomical Twilight 5:17 AM MDT 8:40 PM MDT
Moon 10:50 AM MDT (9/9) 9:51 PM MDT (9/9)
Length of Visible Light 13h 24m
Length of Day
12h 34m
Waxing Crescent, 19% of the Moon is Illuminated
Sep 9
Waxing Crescent
Sep 12
First Quarter
Sep 19
Full
Sep 26
Last Quarter
Oct 4
New

Hourly Weather History & Observations

Time (MDT) Temp. Dew Point Humidity Pressure Visibility Wind Dir Wind Speed Gust Speed Precip Events Conditions
12:15 AM 60.8 °F 48.2 °F 63% 30.22 in 10.0 mi SE 5.8 mph - N/A   Clear
12:35 AM 62.6 °F 48.2 °F 59% 30.22 in 10.0 mi ESE 3.5 mph - N/A   Clear
12:55 AM 62.6 °F 48.2 °F 59% 30.21 in 10.0 mi ESE 3.5 mph - N/A   Clear
1:15 AM 60.8 °F 48.2 °F 63% 30.21 in 10.0 mi East 5.8 mph - N/A   Clear
1:35 AM 60.8 °F 48.2 °F 63% 30.21 in 10.0 mi ESE 5.8 mph - N/A   Clear
1:55 AM 59.0 °F 48.2 °F 67% 30.20 in 10.0 mi East 6.9 mph - N/A   Clear
2:15 AM 57.2 °F 48.2 °F 72% 30.20 in 10.0 mi East 8.1 mph - N/A   Clear
2:35 AM 59.0 °F 48.2 °F 67% 30.20 in 10.0 mi Calm Calm - N/A   Clear
2:55 AM 59.0 °F 48.2 °F 67% 30.20 in 10.0 mi Calm Calm - N/A   Clear
3:15 AM 59.0 °F 48.2 °F 67% 30.19 in 10.0 mi Calm Calm - N/A   Clear
3:35 AM 59.0 °F 48.2 °F 67% 30.19 in 10.0 mi East 3.5 mph - N/A   Clear
3:55 AM 59.0 °F 48.2 °F 67% 30.19 in 10.0 mi ESE 3.5 mph - N/A   Clear
4:15 AM 59.0 °F 48.2 °F 67% 30.18 in 10.0 mi SE 6.9 mph - N/A   Clear
4:35 AM 53.6 °F 46.4 °F 77% 30.18 in 10.0 mi South 6.9 mph - N/A   Clear
4:55 AM 53.6 °F 46.4 °F 77% 30.18 in 10.0 mi South 6.9 mph - N/A   Clear
5:15 AM 55.4 °F 48.2 °F 77% 30.18 in 10.0 mi WSW 4.6 mph - N/A   Clear
5:35 AM 55.4 °F 48.2 °F 77% 30.18 in 10.0 mi SW 3.5 mph - N/A   Clear
5:55 AM 55.4 °F 48.2 °F 77% 30.19 in 10.0 mi Calm Calm - N/A   Clear
6:15 AM 57.2 °F 48.2 °F 72% 30.19 in 10.0 mi Calm Calm - N/A   Clear
6:35 AM 57.2 °F 48.2 °F 72% 30.19 in 10.0 mi Calm Calm - N/A   Clear
6:55 AM 57.2 °F 48.2 °F 72% 30.19 in 10.0 mi Calm Calm - N/A   Clear
7:15 AM 57.2 °F 48.2 °F 72% 30.20 in 10.0 mi Calm Calm - N/A   Clear
7:35 AM 57.2 °F 50.0 °F 77% 30.20 in 10.0 mi Calm Calm - N/A   Clear
7:55 AM 59.0 °F 50.0 °F 72% 30.21 in 10.0 mi Calm Calm - N/A   Clear
8:15 AM 62.6 °F 50.0 °F 63% 30.21 in 10.0 mi Calm Calm - N/A   Clear
8:35 AM 64.4 °F 50.0 °F 59% 30.22 in 10.0 mi SSE 3.5 mph - N/A   Clear
8:55 AM 64.4 °F 50.0 °F 59% 30.22 in 10.0 mi SE 3.5 mph - N/A   Clear
9:15 AM 66.2 °F 50.0 °F 56% 30.22 in 10.0 mi SE 6.9 mph - N/A   Clear
9:35 AM 66.2 °F 50.0 °F 56% 30.22 in 10.0 mi SSE 9.2 mph - N/A   Clear
9:55 AM 68.0 °F 48.2 °F 49% 30.22 in 10.0 mi SSW 4.6 mph - N/A   Clear
10:15 AM 68.0 °F 48.2 °F 49% 30.22 in 10.0 mi SE 9.2 mph - N/A   Clear
10:35 AM 69.8 °F 48.2 °F 46% 30.22 in 10.0 mi SSE 9.2 mph - N/A   Clear
10:55 AM 69.8 °F 46.4 °F 43% 30.22 in 10.0 mi ESE 10.4 mph - N/A   Clear
11:15 AM 71.6 °F 46.4 °F 41% 30.21 in 10.0 mi ESE 12.7 mph - N/A   Clear
11:35 AM 71.6 °F 46.4 °F 41% 30.21 in 10.0 mi South 5.8 mph 18.4 mph N/A   Clear
11:55 AM 73.4 °F 46.4 °F 38% 30.21 in 10.0 mi SSE 9.2 mph 16.1 mph N/A   Clear
12:15 PM 73.4 °F 46.4 °F 38% 30.20 in 10.0 mi ESE 10.4 mph 16.1 mph N/A   Partly Cloudy
12:35 PM 73.4 °F 46.4 °F 38% 30.20 in 10.0 mi SSE 10.4 mph 18.4 mph N/A   Partly Cloudy
12:55 PM 73.4 °F 46.4 °F 38% 30.19 in 10.0 mi SSE 13.8 mph 20.7 mph N/A   Clear
1:15 PM 73.4 °F 46.4 °F 38% 30.18 in 10.0 mi SE 16.1 mph 21.9 mph N/A   Clear
1:35 PM 75.2 °F 46.4 °F 36% 30.17 in 10.0 mi SE 12.7 mph 23.0 mph N/A   Clear
1:55 PM 75.2 °F 48.2 °F 38% 30.16 in 10.0 mi SE 15.0 mph 21.9 mph N/A   Clear
2:15 PM 73.4 °F 48.2 °F 41% 30.16 in 10.0 mi SE 13.8 mph 23.0 mph N/A   Clear
2:35 PM 73.4 °F 48.2 °F 41% 30.15 in 10.0 mi ESE 13.8 mph 23.0 mph N/A   Clear
2:55 PM 75.2 °F 48.2 °F 38% 30.14 in 10.0 mi SE 15.0 mph 23.0 mph N/A   Scattered Clouds
3:15 PM 71.6 °F 48.2 °F 43% 30.14 in 10.0 mi ESE 17.3 mph 23.0 mph N/A   Scattered Clouds
3:35 PM 73.4 °F 48.2 °F 41% 30.14 in 10.0 mi ESE 18.4 mph 25.3 mph N/A   Mostly Cloudy
3:55 PM 71.6 °F 48.2 °F 43% 30.14 in 10.0 mi ESE 18.4 mph - N/A   Mostly Cloudy
4:15 PM 71.6 °F 50.0 °F 46% 30.14 in 10.0 mi South 18.4 mph 26.5 mph N/A   Overcast
4:35 PM 66.2 °F 48.2 °F 52% 30.14 in 10.0 mi SSW 17.3 mph 23.0 mph N/A   Overcast
4:55 PM 68.0 °F 46.4 °F 46% 30.14 in 10.0 mi SSW 12.7 mph - N/A   Scattered Clouds
5:15 PM 68.0 °F 46.4 °F 46% 30.13 in 10.0 mi South 13.8 mph - N/A   Mostly Cloudy
5:35 PM 68.0 °F 48.2 °F 49% 30.13 in 10.0 mi South 11.5 mph 17.3 mph N/A   Mostly Cloudy
5:55 PM 68.0 °F 48.2 °F 49% 30.14 in 10.0 mi SSE 15.0 mph - N/A   Mostly Cloudy
6:15 PM 68.0 °F 48.2 °F 49% 30.13 in 10.0 mi SSE 11.5 mph - N/A   Mostly Cloudy
6:35 PM 66.2 °F 48.2 °F 52% 30.14 in 10.0 mi SSE 12.7 mph - N/A   Mostly Cloudy
6:55 PM 66.2 °F 50.0 °F 56% 30.15 in 10.0 mi South 11.5 mph - N/A   Mostly Cloudy
7:15 PM 66.2 °F 50.0 °F 56% 30.15 in 10.0 mi South 5.8 mph - N/A   Overcast
7:35 PM 64.4 °F 50.0 °F 59% 30.16 in 10.0 mi SSE 4.6 mph - N/A   Overcast
7:55 PM 64.4 °F 50.0 °F 59% 30.16 in 10.0 mi SE 4.6 mph - N/A   Overcast
8:15 PM 64.4 °F 50.0 °F 59% 30.16 in 10.0 mi SSE 4.6 mph - N/A   Overcast
8:35 PM 64.4 °F 50.0 °F 59% 30.17 in 10.0 mi SSE 3.5 mph - N/A   Overcast
8:55 PM 64.4 °F 50.0 °F 59% 30.17 in 10.0 mi SE 8.1 mph - N/A   Mostly Cloudy
9:15 PM 64.4 °F 53.6 °F 68% 30.18 in 10.0 mi SSE 11.5 mph - N/A   Partly Cloudy
9:35 PM 64.4 °F 53.6 °F 68% 30.19 in 10.0 mi SSE 11.5 mph - N/A   Clear
9:55 PM 62.6 °F 53.6 °F 72% 30.19 in 10.0 mi SSE 12.7 mph 18.4 mph N/A   Clear
10:15 PM 62.6 °F 53.6 °F 72% 30.20 in 10.0 mi SE 8.1 mph - N/A   Partly Cloudy
10:35 PM 60.8 °F 53.6 °F 77% 30.20 in 10.0 mi SSE 8.1 mph - N/A   Partly Cloudy
10:55 PM 60.8 °F 53.6 °F 77% 30.20 in 10.0 mi South 3.5 mph - N/A   Scattered Clouds
11:15 PM 62.6 °F 53.6 °F 72% 30.20 in 10.0 mi Calm Calm - N/A   Scattered Clouds
11:35 PM 62.6 °F 53.6 °F 72% 30.20 in 10.0 mi Calm Calm - N/A   Scattered Clouds
11:55 PM 60.8 °F 53.6 °F 77% 30.20 in 10.0 mi ESE 4.6 mph - N/A   Clear